Список аэропортов
Фактическая погода:

15 августа, 23:30
Температура: +27°C (+27.0*)
Ветер: перем. 1 м/с
Давление: *754 мм
Без существ. явл.
Время (МСК)Темп. СВетерВлажностьДавлениеОблачностьОсадки
21:00+29ЮЗ, 2 м/с64%1006 гПаясно
22:00+28ЮЗ, 1 м/с70%1006 гПаясно
23:00+27Ю, 1 м/с76%1006 гПаясно
16 августа
00:00+26ЮЗ, 1 м/с80%1006 гПаясно
01:00+26СЗ, 1 м/с83%1006 гПаясно
02:00+25С, 1 м/с84%1006 гПаясно
03:00+25СЗ, 1 м/с85%1006 гПаясно
04:00+24СЗ, 1 м/с86%1006 гПаясно
05:00+24СЗ, 1 м/с89%1006 гПаясно
06:00+24СЗ, 2 м/с92%1006 гПамалооблачно
07:00+24СЗ, 2 м/с92%1006 гПас прояснениями
08:00+25СЗ, 2 м/с83%1006 гПаоблачно
09:00+27С, 1 м/с79%1007 гПаоблачно
10:00+28ЮВ, 2 м/с75%1007 гПамалооблачно
11:00+29Ю, 4 м/с67%1007 гПаясно
12:00+30Ю, 5 м/с64%1007 гПаясно
13:00+30Ю, 6 м/с63%1007 гПаясно
14:00+30Ю, 7 м/с59%1007 гПаясно
15:00+31Ю, 7 м/с59%1007 гПаясно
16:00+30Ю, 8 м/с59%1006 гПаясно
17:00+30Ю, 8 м/с62%1006 гПаясно
18:00+29Ю, 7 м/с67%1006 гПаясно
19:00+29Ю, 7 м/с72%1006 гПаясно
20:00+28Ю, 4 м/с74%1006 гПаясно
21:00+28ЮЗ, 2 м/с76%1007 гПамалооблачно
22:00+28ЮЗ, 1 м/с77%1007 гПаясно
23:00+27ЮЗ, 1 м/с80%1007 гПаясно
17 августа
00:00+26Штиль 84%1007 гПаясно
01:00+26В, 1 м/с87%1007 гПаясно
02:00+25СВ, 1 м/с90%1007 гПамалооблачно
03:00+25С, 1 м/с92%1007 гПас прояснениями
04:00+25С, 1 м/с92%1007 гПаоблачно
05:00+26СЗ, 1 м/с90%1007 гПаоблачно
06:00+26С, 1 м/с87%1008 гПаоблачно
07:00+26С, 1 м/с82%1008 гПаоблачно
08:00+27С, 2 м/с78%1008 гПаоблачно
09:00+28СВ, 2 м/с72%1008 гПаоблачно
10:00+29СВ, 2 м/с67%1008 гПамалооблачно
11:00+30В, 2 м/с64%1008 гПамалооблачно
12:00+30ЮВ, 4 м/с65%1008 гПамалооблачно
13:00+30ЮВ, 5 м/с64%1008 гПаясно
14:00+30Ю, 6 м/с62%1007 гПаясно
15:00+30Ю, 7 м/с60%1007 гПаясно
16:00+30Ю, 7 м/с62%1007 гПамалооблачно
17:00+30Ю, 7 м/с68%1006 гПас прояснениями
18:00+29Ю, 7 м/с71%1006 гПас прояснениями
19:00+29Ю, 5 м/с70%1006 гПас прояснениями
20:00+29ЮЗ, 3 м/с69%1006 гПаясно
21:00+28З, 2 м/с69%1006 гПаясно